#timestamp,LO_Frequency,Hit 
1502060415.5,286047029.1,N
1502060435.4,286047031.0,N
1502060455.2,286047030.2,N
1502060475.0,286047027.2,N
1502060475.9,286047027.2,N
1502060495.8,286047026.1,N
1502060515.6,286047026.6,N
1502060535.4,286047026.8,N
1502060555.3,286047026.0,N
1502060575.1,286047027.8,N
1502060576.0,286047027.8,N
1502060595.8,286047027.5,N
1502060615.7,286047027.1,N
1502060635.5,286047028.7,N
1502060655.3,286047025.5,N
1502060675.1,286047030.0,N
1502060695.9,286047029.5,N
1502060715.7,286047031.0,N
1502060735.5,286047030.2,N
1502060755.4,286047029.8,N
1502060775.2,286047027.8,N
1502060795.0,286047026.3,N
1502060795.9,286047026.3,N
1502060815.8,286047026.6,N
1502060835.6,286047027.0,N
1502060855.4,286047029.3,N
1502060875.3,286047031.0,N
1502060895.1,286047030.8,N
1502060896.0,286047030.8,N
1502060915.8,286047031.3,N
1502060935.7,286047033.2,N
1502060955.5,286047027.0,N
1502060975.3,286047031.1,N
1502060995.1,286047029.2,N
1502061015.9,286047030.7,N
1502061035.7,286047030.2,N
1502061055.5,286047030.6,N
1502061075.4,286047033.1,N
1502061095.2,286047032.3,N
1502061115.0,286047034.8,N
1502061115.9,286047034.8,N
1502061135.8,286047033.7,N
1502061155.6,286047034.1,N
1502061175.4,286047031.7,N
1502061195.3,286047032.8,N
1502061215.1,286047034.4,N
1502061216.0,286047034.4,N
1502061235.8,286047035.4,N
1502061255.7,286047036.8,N
1502061275.5,286047039.5,N
1502061295.3,286047039.0,N
1502061315.1,286047037.6,N
1502061335.9,286047035.7,N
1502061355.7,286047033.4,N
1502061375.5,286047037.8,N
1502061395.4,286047036.0,N
1502061415.2,286047036.1,N
1502061435.0,286047036.4,N
1502061435.9,286047036.4,N
1502061455.8,286047035.5,N
1502061475.6,286047037.4,N
1502061495.4,286047035.9,N
1502061515.2,286047034.4,N
1502061535.1,286047034.2,N
1502061536.0,286047034.2,N
1502061555.8,286047033.7,N
1502061575.6,286047031.4,N
1502061595.5,286047030.5,N
1502061615.3,286047031.7,N
1502061635.1,286047036.1,N
1502061655.9,286047035.1,N
1502061675.7,286047039.5,N
1502061695.5,286047037.8,N
1502061715.4,286047033.7,N
1502061735.2,286047035.6,N
1502061755.0,286047037.1,N
1502061755.9,286047037.1,N
1502061775.8,286047039.5,N
1502061795.6,286047036.8,N
1502061815.4,286047037.3,N
1502061835.3,286047039.5,N
1502061855.1,286047037.4,N
1502061856.0,286047037.4,N
1502061875.9,286047032.3,N
1502061895.7,286047031.3,N
1502061915.6,286047028.5,N
1502061935.4,286047034.6,N
1502061955.2,286047033.7,N
1502061975.1,286047034.2,N
1502061976.0,286047034.2,N
1502061995.8,286047033.5,N
1502062015.6,286047032.0,N
1502062035.5,286047031.4,N
1502062055.3,286047031.2,N
1502062075.1,286047033.2,N
1502062095.8,286047030.9,N
1502062115.7,286047027.5,N
1502062135.5,286047027.8,N
1502062155.3,286047027.8,N
1502062175.2,286047025.4,N
1502062195.9,286047028.3,N
1502062215.7,286047028.7,N
1502062235.6,286047029.7,N
1502062255.4,286047029.6,N
1502062275.2,286047029.8,N
1502062295.0,286047027.1,N
1502062296.0,286047027.1,N
1502062315.8,286047028.2,N
1502062335.6,286047029.5,N
1502062355.4,286047032.2,N
1502062375.3,286047030.1,N
1502062395.1,286047030.5,N
1502062415.8,286047033.5,N
1502062435.7,286047034.8,N
1502062455.5,286047030.7,N
1502062475.3,286047032.5,N
1502062495.2,286047034.2,N
1502062515.9,286047037.9,N
1502062535.7,286047035.1,N
1502062555.6,286047036.2,N
1502062575.4,286047037.1,N
1502062595.2,286047038.0,N
1502062615.0,286047035.3,N
1502062635.6,286047035.1,N
1502062655.4,286047033.5,N
1502062675.2,286047035.1,N
1502062695.1,286047033.9,N
1502062696.0,286047033.9,N
1502062715.8,286047035.4,N
1502062735.6,286047038.8,N
1502062755.5,286047038.2,N
1502062775.3,286047035.4,N
1502062795.1,286047036.6,N
1502062815.8,286047037.2,N
1502062835.7,286047038.7,N
1502062855.5,286047038.1,N
1502062875.3,286047038.3,N
1502062895.2,286047038.7,N
1502062915.9,286047038.4,N
1502062935.7,286047040.3,N
1502062955.6,286047039.9,N
1502062975.4,286047041.9,N
1502062995.2,286047043.5,N
1502063015.1,286047042.7,N
1502063016.0,286047042.7,N
1502063035.8,286047039.5,N
1502063055.6,286047040.9,N
1502063075.4,286047039.7,N
1502063095.3,286047042.3,N
1502063115.1,286047040.5,N
1502063135.8,286047042.6,N
1502063155.7,286047040.2,N
1502063175.5,286047039.9,N
1502063195.3,286047041.4,N
1502063215.2,286047045.8,N
1502063235.9,286047043.1,N
1502063255.7,286047043.4,N
1502063275.6,286047042.8,N
1502063295.4,286047039.5,N
1502063315.2,286047037.3,N
1502063335.1,286047037.0,N
1502063336.0,286047037.0,N
1502063355.8,286047040.5,N
1502063375.6,286047039.2,N
1502063395.4,286047038.8,N
1502063415.3,286047040.7,N
1502063435.9,286047042.8,N
1502063455.7,286047042.3,N
1502063475.5,286047041.6,N
1502063495.4,286047044.2,N
1502063515.2,286047043.5,N
1502063535.0,286047043.8,N
1502063535.9,286047043.8,N
1502063555.8,286047042.6,N
1502063575.6,286047038.7,N
1502063595.4,286047038.7,N
1502063615.3,286047038.8,N
1502063635.1,286047039.5,N
1502063636.0,286047039.5,N
1502063655.8,286047037.9,N
1502063675.6,286047034.2,N
1502063695.5,286047032.6,N
1502063715.3,286047030.1,N
1502063735.1,286047030.4,N
1502063755.9,286047033.1,N
1502063775.7,286047033.2,N
1502063795.5,286047030.8,N
1502063815.4,286047032.6,N
1502063835.2,286047034.0,N
1502063855.0,286047035.8,N
1502063855.9,286047035.8,N
1502063875.8,286047036.2,N
1502063895.6,286047035.6,N
1502063915.4,286047041.2,N
1502063935.2,286047037.3,N
1502063955.1,286047036.9,N
1502063956.0,286047036.9,N
1502063975.8,286047036.6,N
1502063995.6,286047036.4,N
